Location: Newark
(33.4453°N, 112.0669°W)
Time: 18:50:25
(UTC+00:00)

Transit 2A - Visible Passes

Search period start: 21 February 2020 00:00
Search period end: 02 March 2020 00:00
Orbit: 600 x 959 km, 66.7° (Epoch: 21 February)

Date Brightness Start Highest point End Pass type
(mag) Time Alt. Az. Time Alt. Az. Time Alt. Az.
28 Feb 8.5 04:15:43 10° NNW 04:16:28 14° NNW 04:16:28 14° NNW visible
29 Feb 7.8 03:41:47 10° N 03:43:47 22° N 03:43:47 22° N visible
01 Mar 7.3 03:08:01 10° N 03:11:13 26° NNE 03:11:13 26° NNE visible
01 Mar 8.8 04:50:52 10° NW 04:51:45 14° NW 04:51:45 14° NW visible
